[[{"header":{"parameterUnit":"m.s-1","parameterCategory":1,"la1":30.2991,"la2":30.254,"lo1":-89.0895,"lo2":-89.0444,"dy":0.0017,"dx":0.0017,"nx":28,"ny":28,"refTime":"2024-10-20T09:00:00:Z","depth":0,"parameterNumber":2,"parameterNumberName":"U-component_of_WINDS"},"data":[0,0,0,0,0,0,0,0,0,0,0,0,0,0,0,0,0,0,0,0,0,0,0,0,0,0,0,0,0,0,0,0,0,0,0,0,0,0,0,0,0,0,0,0,0,0,0,0,0,0,0,0,0,0,0,0,0,0,0.1366,0.1366,0,0.136,0.136,0.136,0.138,0.1381,0.1381,0.1382,0.1373,0.1372,0.1372,0,0,0,0,0,0,0,0,0,0,0,0,0,0.1392,0.1392,0.1366,0.1366,0.1366,0.136,0.136,0.136,0.138,0.1381,0.1381,0.1382,0.1373,0.1372,0.1371,0,0,0,0,0,0,0,0,0,0,0,0,0,0.1383,0.1391,0.1366,0.1375,0.1376,0.136,0.136,0.136,0.138,0.1381,0.1381,0.1382,0.1374,0.1372,0.1371,0.1346,0,0,0.1368,0.1367,0,0,0,0,0,0,0,0,0.1383,0.1382,0.1374,0.1374,0.1375,0.1372,0.1366,0.1355,0.1379,0.1378,0.1382,0.1383,0.1372,0.1371,0.1368,0.1346,0.1345,0.1368,0.1367,0.1366,0.1366,0,0,0,0,0,0,0,0.1384,0.1382,0.1364,0.1374,0.1374,0.1379,0.1379,0.1364,0.137,0.1378,0.138,0.1379,0.1372,0.1369,0.1368,0.1345,0.1368,0.1367,0.1366,0.1365,0.1303,0.1302,0,0,0,0,0,0,0.1384,0.1383,0.1364,0.1363,0.1382,0.1378,0.1377,0.1372,0.137,0.1371,0.1378,0.138,0.137,0.1369,0.1367,0.1337,0.1366,0.1365,0.1365,0.1303,0.1302,0.1301,0,0,0,0,0,0,0.1384,0.1382,0.1364,0.1374,0.1372,0.1376,0.137,0.1371,0.1368,0.137,0.1371,0.1374,0.1371,0.1369,0.1351,0.1337,0.1365,0.1364,0.1305,0.1303,0.1302,0.1277,0,0,0,0,0,0,0.1385,0.1382,0.1372,0.1373,0.1371,0.1348,0.1369,0.1371,0.1366,0.1368,0.1366,0.1366,0.1372,0.1353,0.135,0.1336,0.1363,0.1306,0.1304,0.1302,0.1279,0.1275,0.1271,0,0,0,0,0,0.1386,0.1365,0.1372,0.1369,0.1359,0.1348,0.1346,0.1353,0.1365,0.1355,0.1357,0.1366,0.134,0.1351,0.1348,0.1333,0.1307,0.1304,0.1302,0.1281,0.1275,0.1271,0,0,0,0,0,0,0.1361,0.1365,0.1373,0.1352,0.1349,0.1351,0.1339,0.1348,0.1341,0.1343,0.1352,0.1351,0.1332,0.1331,0.1344,0.1309,0.1325,0.1322,0.131,0.1305,0.1301,0.13,0.1362,0,0,0,0,0,0.1353,0.1344,0.1348,0.1329,0.1328,0.1334,0.1329,0.1335,0.1332,0.1331,0.1331,0.1327,0.1319,0.1312,0.1304,0.128,0.1279,0.1268,0.1265,0.1261,0.1258,0.1245,0.124,0.1294,0.1294,0.1294,0,0,0.1336,0.1338,0.1331,0.1324,0.1323,0.1312,0.1332,0.132,0.1312,0.1329,0.1312,0.1312,0.1309,0.1288,0.1279,0.1287,0.1243,0.1259,0.1256,0.1254,0.1242,0.1237,0.1233,0.1293,0.1293,0.1293,0,0,0.13,0.1301,0.1285,0.1284,0.1283,0.1287,0.1284,0.1285,0.1286,0.127,0.1282,0.1273,0.1257,0.1254,0.1251,0.1216,0.1225,0.1214,0.1192,0.118,0.1175,0.1171,0.1158,0.1153,0.1211,0.1211,0.1211,0,0.1279,0.1265,0.1276,0.1263,0.1259,0.1276,0.126,0.1258,0.1253,0.125,0.126,0.1241,0.124,0.1219,0.1211,0.1208,0.1203,0.1212,0.1175,0.1172,0.1168,0.1155,0.115,0.1209,0.1209,0.121,0.121,0,0.1238,0.1228,0.1216,0.1212,0.1208,0.1193,0.1202,0.1196,0.1203,0.1207,0.119,0.119,0.1182,0.1178,0.1185,0.1158,0.1163,0.1174,0.119,0.1161,0.1149,0.1145,0.1207,0.1208,0.1208,0.1209,0,0,0.1183,0.1188,0.1183,0.1182,0.1183,0.1175,0.1162,0.1156,0.115,0.1147,0.1135,0.1123,0.1134,0.113,0.1137,0.1126,0.1098,0.1138,0.1138,0.1129,0.1067,0.1057,0.1051,0.1105,0.1104,0.1103,0.1067,0,0.1146,0.1124,0.1135,0.1111,0.1102,0.1119,0.1107,0.1106,0.111,0.1102,0.1106,0.1097,0.1112,0.111,0.11,0.1103,0.1085,0.1106,0.1092,0.1092,0.109,0.1045,0.1034,0.1,0.1063,0.1062,0.1061,0,0.1099,0.1096,0.1072,0.1076,0.1072,0.1062,0.1057,0.105,0.105,0.1053,0.105,0.106,0.1047,0.1065,0.1047,0.1061,0.1057,0.1058,0.1057,0.1053,0.1073,0.1039,0.0989,0.0983,0.1054,0.1055,0.1055,0,0.1059,0.1049,0.1033,0.1032,0.1037,0.1029,0.103,0.1031,0.1027,0.1023,0.1021,0.1015,0.1012,0.1007,0.1015,0.1028,0.0996,0.1015,0.0997,0.0996,0.0986,0.0986,0.0933,0.0988,0.0988,0.0988,0.0988,0,0.1016,0.1,0.1016,0.1005,0.0988,0.1001,0.0984,0.0987,0.0988,0.0979,0.0994,0.0985,0.0997,0.0989,0.0995,0.0979,0.0978,0.0979,0.0981,0.0976,0.0976,0.0971,0.0973,0.0987,0.0987,0.0987,0.0987,0,0.0966,0.0977,0.096,0.0967,0.0968,0.0955,0.096,0.0951,0.0958,0.0945,0.0943,0.0952,0.0944,0.0952,0.0944,0.0948,0.0926,0.0932,0.0926,0.0926,0.0907,0.0908,0.0847,0.084,0.0901,0.0901,0.09,0,0.0936,0.0925,0.0931,0.0926,0.0927,0.0919,0.0916,0.0929,0.0925,0.0925,0.0915,0.0909,0.0903,0.0889,0.0894,0.0888,0.0893,0.0872,0.0892,0.0888,0.089,0.089,0.0888,0.0867,0.0866,0.0866,0.0865,0,0.0881,0.0888,0.0882,0.0879,0.0875,0.0873,0.0872,0.0867,0.0881,0.0876,0.0868,0.0864,0.0857,0.0849,0.0845,0.0846,0.0857,0.086,0.0855,0.0849,0.0845,0.0845,0.0912,0.086,0.0861,0.0861,0.0861,0.0861,0.0839,0.083,0.0833,0.0827,0.0828,0.0827,0.0819,0.0825,0.0819,0.0815,0.0824,0.0813,0.0815,0.0811,0.0811,0.0803,0.0812,0.0805,0.0803,0.08,0.0797,0.0849,0.0803,0.0803,0.0803,0.0803,0.0803,0,0.0783,0.0787,0.0782,0.078,0.0776,0.079,0.079,0.0785,0.0776,0.0777,0.0773,0.0764,0.0758,0.0764,0.0758,0.0751,0.0756,0.0749,0.0748,0.0748,0.079,0.0794,0.0745,0.0745,0.0745,0.0745,0.0745,0.0745,0.0753,0.0738,0.0745,0.073,0.0734,0.0725,0.0724,0.0724,0.0725,0.0715,0.071,0.0715,0.0718,0.0713,0.0708,0.071,0.0706,0.0697,0.07,0.0739,0.0745,0.075,0.0754,0.0697,0.0697,0.0658,0.0658,0.0658]},{"header":{"parameterUnit":"m.s-1","parameterCategory":1,"la1":30.2991,"la2":30.254,"lo1":-89.0895,"lo2":-89.0444,"dy":0.0017,"dx":0.0017,"nx":28,"ny":28,"refTime":"2024-10-20T09:00:00:Z","depth":0,"parameterNumber":3,"parameterNumberName":"V-component_of_WINDS"},"data":[0,0,0,0,0,0,0,0,0,0,0,0,0,0,0,0,0,0,0,0,0,0,0,0,0,0,0,0,0,0,0,0,0,0,0,0,0,0,0,0,0,0,0,0,0,0,0,0,0,0,0,0,0,0,0,0,0,0,-2.3905,-2.3906,0,-2.4022,-2.4023,-2.4025,-2.4046,-2.4045,-2.4044,-2.4043,-2.4162,-2.4166,-2.417,0,0,0,0,0,0,0,0,0,0,0,0,0,-2.37,-2.3703,-2.3905,-2.3906,-2.3908,-2.4022,-2.4023,-2.4025,-2.4046,-2.4045,-2.4044,-2.4043,-2.416,-2.4165,-2.417,0,0,0,0,0,0,0,0,0,0,0,0,0,-2.38,-2.3705,-2.3905,-2.3932,-2.3936,-2.4021,-2.4023,-2.4025,-2.4046,-2.4045,-2.4043,-2.4042,-2.4159,-2.4165,-2.4171,-2.4237,0,0,-2.4189,-2.4192,0,0,0,0,0,0,0,0,-2.3794,-2.3807,-2.3927,-2.393,-2.3935,-2.4018,-2.3994,-2.4096,-2.4047,-2.4004,-2.4043,-2.4041,-2.4115,-2.4125,-2.415,-2.4242,-2.4247,-2.419,-2.4193,-2.4196,-2.4198,0,0,0,0,0,0,0,-2.3787,-2.3802,-2.3951,-2.3928,-2.3933,-2.3939,-2.3951,-2.4014,-2.4066,-2.4008,-2.401,-2.4023,-2.4117,-2.4144,-2.4152,-2.4249,-2.419,-2.4195,-2.4199,-2.4201,-2.4402,-2.4404,0,0,0,0,0,0,-2.3775,-2.3797,-2.3948,-2.3955,-2.386,-2.3943,-2.3958,-2.3993,-2.4066,-2.4075,-2.4024,-2.4024,-2.4134,-2.4145,-2.4157,-2.4239,-2.4196,-2.4202,-2.4205,-2.44,-2.4403,-2.4404,0,0,0,0,0,0,-2.3771,-2.3789,-2.3943,-2.3876,-2.3896,-2.3949,-2.3988,-2.3996,-2.4023,-2.4078,-2.4087,-2.4042,-2.4133,-2.4148,-2.4217,-2.4243,-2.4204,-2.421,-2.4398,-2.4401,-2.4403,-2.4404,0,0,0,0,0,0,-2.3765,-2.3787,-2.3813,-2.3877,-2.39,-2.4001,-2.3989,-2.3999,-2.4033,-2.4033,-2.4097,-2.4106,-2.4133,-2.4208,-2.4223,-2.4251,-2.4215,-2.4396,-2.44,-2.4403,-2.4402,-2.4406,-2.441,0,0,0,0,0,-2.3758,-2.3808,-2.3814,-2.3832,-2.3933,-2.4003,-2.4016,-2.4046,-2.4035,-2.4061,-2.4097,-2.4104,-2.4238,-2.4214,-2.4232,-2.4262,-2.4395,-2.4399,-2.4402,-2.44,-2.4405,-2.441,0,0,0,0,0,0,-2.3745,-2.3817,-2.3824,-2.3897,-2.3943,-2.4006,-2.404,-2.4051,-2.4101,-2.4099,-2.4134,-2.4149,-2.4215,-2.4246,-2.4218,-2.433,-2.4316,-2.4323,-2.4308,-2.4313,-2.4317,-2.4309,-2.422,0,0,0,0,0,-2.3751,-2.3802,-2.3861,-2.3919,-2.3943,-2.3987,-2.4019,-2.4038,-2.4088,-2.4107,-2.4148,-2.4196,-2.4249,-2.4283,-2.4335,-2.4406,-2.4421,-2.4436,-2.444,-2.4443,-2.4449,-2.4489,-2.4497,-2.4417,-2.4417,-2.4417,0,0,-2.3763,-2.3808,-2.3838,-2.3918,-2.3957,-2.4008,-2.4004,-2.4058,-2.4097,-2.4116,-2.4183,-2.4215,-2.427,-2.4341,-2.4374,-2.4368,-2.4474,-2.4448,-2.445,-2.4454,-2.4494,-2.4502,-2.4508,-2.442,-2.4419,-2.4419,0,0,-2.3812,-2.3851,-2.3904,-2.3943,-2.4002,-2.4031,-2.4044,-2.4105,-2.4127,-2.4195,-2.4211,-2.4257,-2.4347,-2.4386,-2.4418,-2.4482,-2.4491,-2.4498,-2.4519,-2.4558,-2.4565,-2.457,-2.4593,-2.4601,-2.4504,-2.4504,-2.4504,0,-2.3819,-2.3898,-2.393,-2.3984,-2.4019,-2.4039,-2.4093,-2.4129,-2.4201,-2.4224,-2.4217,-2.4331,-2.437,-2.445,-2.4466,-2.4491,-2.4506,-2.4491,-2.4561,-2.4567,-2.4573,-2.4595,-2.4604,-2.4504,-2.4504,-2.4504,-2.4504,0,-2.3905,-2.3959,-2.3995,-2.4065,-2.4103,-2.4157,-2.4197,-2.4232,-2.4249,-2.4279,-2.4348,-2.4396,-2.4457,-2.4478,-2.4494,-2.4561,-2.4555,-2.4554,-2.454,-2.4581,-2.4602,-2.4611,-2.4505,-2.4505,-2.4505,-2.4505,0,0,-2.3948,-2.4035,-2.4048,-2.408,-2.4146,-2.4189,-2.4244,-2.4305,-2.4334,-2.4384,-2.443,-2.4507,-2.4506,-2.4542,-2.4563,-2.4597,-2.4645,-2.4592,-2.4594,-2.46,-2.4722,-2.4722,-2.4731,-2.4652,-2.4653,-2.4655,-2.4717,0,-2.4005,-2.4103,-2.4134,-2.4216,-2.4267,-2.4287,-2.4335,-2.438,-2.441,-2.4457,-2.449,-2.4544,-2.4539,-2.4561,-2.4596,-2.4632,-2.467,-2.4628,-2.4695,-2.4697,-2.468,-2.4743,-2.4743,-2.4799,-2.4726,-2.4727,-2.4728,0,-2.4084,-2.4135,-2.4222,-2.4283,-2.4305,-2.4348,-2.4406,-2.4451,-2.4503,-2.4523,-2.4563,-2.4581,-2.4639,-2.4622,-2.4703,-2.4673,-2.4703,-2.4725,-2.4728,-2.4735,-2.4715,-2.4751,-2.4818,-2.4826,-2.4742,-2.4741,-2.474,0,-2.4107,-2.4197,-2.4262,-2.4288,-2.436,-2.439,-2.4421,-2.4472,-2.4507,-2.4558,-2.4581,-2.4638,-2.4669,-2.4713,-2.4746,-2.4731,-2.4823,-2.4809,-2.4841,-2.484,-2.4859,-2.4857,-2.4931,-2.4878,-2.4878,-2.4878,-2.4878,0,-2.4166,-2.4219,-2.4273,-2.4312,-2.4372,-2.4407,-2.4465,-2.4497,-2.4543,-2.4589,-2.4609,-2.4652,-2.4693,-2.4742,-2.4768,-2.483,-2.4844,-2.4861,-2.4868,-2.4859,-2.4857,-2.4879,-2.4876,-2.488,-2.488,-2.4879,-2.4879,0,-2.4202,-2.424,-2.4311,-2.4374,-2.4391,-2.4432,-2.4486,-2.4525,-2.4556,-2.4614,-2.4629,-2.4678,-2.4736,-2.4773,-2.4847,-2.4864,-2.4933,-2.4938,-2.4915,-2.4918,-2.4947,-2.4944,-2.5038,-2.5052,-2.4989,-2.499,-2.499,0,-2.4237,-2.4278,-2.4346,-2.4378,-2.441,-2.4462,-2.4498,-2.4533,-2.457,-2.4633,-2.4664,-2.4724,-2.4773,-2.4865,-2.4906,-2.4963,-2.4969,-2.4998,-2.4978,-2.4969,-2.497,-2.4967,-2.4971,-2.5001,-2.5002,-2.5002,-2.5003,0,-2.4296,-2.4313,-2.4364,-2.4422,-2.4464,-2.4511,-2.4558,-2.4584,-2.4628,-2.4667,-2.4727,-2.4765,-2.4841,-2.49,-2.496,-2.4992,-2.5005,-2.5009,-2.5019,-2.5011,-2.4996,-2.5005,-2.4924,-2.5007,-2.5006,-2.5006,-2.5006,-2.5006,-2.4333,-2.4371,-2.4424,-2.448,-2.4519,-2.4563,-2.4603,-2.4639,-2.4689,-2.4754,-2.4772,-2.4834,-2.4886,-2.4969,-2.5002,-2.5051,-2.5048,-2.5063,-2.5066,-2.5069,-2.507,-2.4989,-2.5062,-2.5062,-2.5062,-2.5062,-2.5062,0,-2.4393,-2.4428,-2.448,-2.4545,-2.4589,-2.4598,-2.4651,-2.4687,-2.4742,-2.4789,-2.4837,-2.4906,-2.4963,-2.501,-2.5068,-2.5099,-2.5106,-2.5113,-2.5111,-2.5118,-2.507,-2.5055,-2.5106,-2.5106,-2.5106,-2.5106,-2.5106,-2.5106,-2.4429,-2.4494,-2.4517,-2.4601,-2.4636,-2.4697,-2.4727,-2.4767,-2.4805,-2.4881,-2.4929,-2.4959,-2.5006,-2.5069,-2.5121,-2.5134,-2.5154,-2.516,-2.5173,-2.5127,-2.5122,-2.5117,-2.5103,-2.5164,-2.5164,-2.5218,-2.5219,-2.5219]}]]